Flag for Austria Weather past 2 weeks in Waidhofen an der Ybbs, Lower Austria, Austria

Now
77 °F

Mild.


Feels Like: 79 °F
Forecast: 59 / 83 °F
Wind: 2 mph from East

Location: Amstetten

Current Time: Jul 1, 2015 at 10:28:42 PM

Latest Report: Jul 1, 2015 at 9:00 PM


Visibility: N/A

Pressure: 30.10 "Hg

Humidity: 55%

Dew point: 59 °F

Location of Waidhofen an der YbbsLocation

Historic Weather in Waidhofen an der Ybbs — Graph

°F

Waidhofen an der Ybbs temperature yesterday

Maximum temperature yesterday: 79 °F (at 2:00 PM)
Minimum temperature yesterday: 56 °F (at 6:00 AM)
Average temperature yesterday: 67 °F

Past Weeks' High & Low Weather Summary

 TemperatureHumidityPressure
High84 °F (Jul 1, 4:00 PM)100% (Jul 1, 3:00 AM)30.28 "Hg (Jul 1, 3:00 AM)
Low45 °F (Jun 25, 6:00 AM)31% (Jun 25, 3:00 PM)29.70 "Hg (Jun 23, 3:00 AM)
Average62 °F75%30.09 "Hg
* Reported Jun 16 9:00 PM — Jul 1 9:00 PM, Waidhofen an der Ybbs, Weather by CustomWeather, © 2015

Note: Actual official high and low records may vary slightly from our data, if they occured in-between our weather recording intervals... More about our weather records

Advertising

Waidhofen an der Ybbs weather history for previous 24 hours

 ConditionsComfort  
Time TempWeatherWind HumidityBarometerVisibility
9:00 PM
Wed, Jul 1
77 °FMild.2 mph55%30.10 "HgN/A
8:00 PM80 °FWarm.3 mph48%30.09 "HgN/A
7:00 PM83 °FWarm.3 mph42%30.08 "HgN/A
6:00 PM83 °FPleasantly warm.3 mph39%30.08 "HgN/A
5:00 PM84 °FPleasantly warm.3 mph37%30.09 "HgN/A
4:00 PM84 °FPleasantly warm.5 mph38%30.09 "HgN/A
3:00 PM83 °FPleasantly warm.5 mph38%30.10 "HgN/A
2:00 PM81 °FWarm.3 mph44%30.11 "HgN/A
1:00 PM80 °FWarm.3 mph53%30.12 "HgN/A
12:00 PM78 °FWarm.2 mph55%30.14 "HgN/A
11:00 AM75 °FMild.2 mph60%30.15 "HgN/A
10:00 AM72 °FMild.2 mph68%30.15 "HgN/A
9:00 AM67 °FMild.2 mph77%30.16 "HgN/A
8:00 AM62 °FMild.1 mph86%30.16 "HgN/A
7:00 AM60 °FCool.1 mph93%30.16 "HgN/A
6:00 AM54 °FCool.No wind99%30.17 "HgN/A
5:00 AM56 °FCool.No wind99%30.16 "HgN/A
4:00 AM56 °FCool.No wind100%30.15 "HgN/A
3:00 AM58 °FCool.No wind100%30.15 "HgN/A
2:00 AM60 °FCool.No wind99%30.14 "HgN/A
1:00 AM59 °FCool.1 mph98%30.15 "HgN/A
12:00 AM63 °FMild.No wind99%30.14 "HgN/A
11:00 PM
Tue, Jun 30
65 °FMild.No wind96%30.13 "HgN/A
10:00 PM67 °FMild.No wind91%30.12 "HgN/A
Weather by CustomWeather, © 2015

See weather overviewHow to use our weather pages